Temperature
5 3 3 4 5 6 6 6 7 8 10 10 10 10 11 12 13 13 14 15 16 16 17 17 17 17 16 16 15 15 14 14 14 13 13 13 13 13 12 12 12 12 12 12
3 3 5 6 6 5 5 5 6 7 9 9 9 10 11 12 12 13 14 15 15 16 17 17 17 17 16 16 16 15 15 15 14 14 14 14 14 13 12 12 12 12 12 12
3 4 6 6 5 5 5 5 6 6 8 9 8 9 10 11 12 13 14 15 15 16 16 17 17 17 17 16 16 16 16 15 15 15 14 13 12 12 12 12 12 12 12 12
3 5 5 5 5 5 5 6 6 6 6 7 8 8 9 10 11 12 13 14 15 16 16 17 17 17 17 17 17 16 16 16 15 15 14 13 13 13 14 13 13 13 12 12
3 4 5 4 5 6 5 6 6 6 6 6 7 7 8 10 11 12 12 13 14 15 16 17 17 17 17 17 17 17 16 16 16 15 14 14 14 14 14 13 13 13 12 12
3 4 4 4 5 6 6 6 6 6 5 5 6 7 7 9 10 11 12 13 14 15 16 16 17 17 17 17 17 17 16 16 16 15 15 15 15 14 14 13 13 13 12 12
2 4 4 5 4 5 5 4 4 4 5 5 7 7 7 9 10 11 12 13 14 15 15 16 16 17 17 17 17 16 16 16 15 15 15 15 15 15 15 15 14 14 13 13
0 2 4 4 4 4 4 4 4 4 5 6 7 7 8 9 10 11 12 13 14 15 15 16 16 16 17 17 16 16 16 16 15 15 15 15 15 15 15 15 14 14 15 15
0 1 4 4 5 4 4 4 4 4 5 5 6 7 8 9 9 10 11 12 13 14 15 15 16 16 16 16 16 16 16 16 15 15 16 15 15 15 15 15 15 15 15 15
0 0 2 4 4 4 4 4 4 4 4 5 6 6 7 8 8 9 10 10 12 13 14 15 15 16 16 16 16 16 16 16 16 16 15 15 15 15 15 15 14 14 15 14
1 -0 1 2 2 2 3 3 3 4 4 4 5 6 7 7 8 8 8 9 11 12 13 14 15 15 16 16 16 16 16 16 16 16 15 15 15 15 15 14 14 14 14 14
1 -0 -1 1 2 2 2 2 2 3 3 4 5 6 7 7 7 7 7 8 9 11 12 12 13 14 15 15 15 15 15 15 16 16 15 15 15 15 14 14 14 14 14 13
1 -1 -1 0 1 1 1 1 1 1 2 3 4 6 7 6 6 6 6 7 8 9 10 11 12 13 14 14 15 15 15 15 15 15 15 15 15 14 14 14 14 14 13 13
2 -1 -1 -1 -0 -0 -0 1 1 1 2 2 3 5 5 5 5 5 5 6 7 7 8 9 10 11 12 13 14 14 14 14 15 15 15 15 14 14 15 14 14 13 13 13
0 -1 -1 -0 1 1 1 1 1 1 2 2 3 4 4 4 4 4 4 5 6 6 7 8 9 9 11 12 12 13 13 14 14 14 14 14 14 14 14 14 13 13 13 12
-1 -1 -1 -0 1 1 2 2 2 2 2 2 3 3 4 4 4 3 4 4 4 5 6 7 8 9 9 10 11 12 13 13 13 13 14 14 14 14 13 13 13 13 12 12
-2 -2 -1 -1 0 1 1 1 2 2 2 2 2 3 3 3 3 3 3 3 3 4 4 6 7 8 9 9 10 11 12 12 13 13 13 13 13 13 13 13 12 12 12 12
-2 -2 -2 -1 -1 -1 1 1 2 2 1 1 2 2 2 3 3 3 3 3 3 3 4 5 6 7 8 9 10 11 11 12 12 12 13 13 13 13 12 12 12 12 12 12
-1 -2 -2 -2 -2 -1 1 1 1 1 1 1 1 2 2 2 3 3 3 3 3 3 4 5 6 7 8 9 9 10 10 11 11 11 12 12 12 12 12 12 12 12 12 11
-1 -2 -2 -2 -2 -1 0 1 2 1 0 1 1 1 1 1 1 2 2 2 2 3 4 5 6 7 7 8 9 9 9 10 10 11 11 11 11 11 11 12 12 11 11 11
-2 -3 -3 -3 -2 -1 0 1 1 0 -0 0 1 1 1 1 1 2 2 2 3 3 4 4 5 6 7 7 8 8 9 9 10 10 10 10 10 11 11 11 11 11 11 10
-2 -3 -3 -3 -3 -1 0 0 -0 -0 1 1 1 1 1 1 1 1 2 2 2 3 4 4 5 5 6 7 7 8 8 8 9 9 10 10 10 10 10 10 10 10 10 10
-2 -2 -3 -3 -2 -1 0 0 1 1 0 0 0 1 1 1 1 1 1 1 2 3 3 4 4 5 6 6 6 7 7 8 8 8 9 9 9 9 9 9 10 9 9 9
-3 -2 -3 -3 -2 -1 0 0 1 1 0 0 0 0 0 0 1 1 1 1 1 2 2 3 4 4 5 5 6 6 6 7 7 8 8 8 8 9 9 9 9 9 9 9
-3 -2 -3 -3 -2 -2 -0 0 0 0 0 0 -0 -0 0 0 0 0 0 1 1 1 2 2 3 3 4 5 5 6 6 6 7 7 7 7 8 8 8 8 8 9 9 9
-3 -3 -3 -3 -2 -2 -1 -0 -0 -0 -1 -1 -1 -0 -0 -0 -0 0 0 0 1 1 1 2 2 3 4 4 5 5 5 6 6 6 7 7 7 7 8 8 7 7 8 8
Wind_Speed
4 5 11 13 14 14 12 13 15 14 8 11 18 20 17 14 13 14 14 14 14 16 16 16 18 19 19 20 21 23 22 21 19 16 16 15 15 13 12 11 15 19 19 20
4 11 15 12 13 14 15 16 16 13 11 11 14 20 16 15 16 14 14 15 15 14 13 15 17 19 21 23 24 24 24 23 23 18 16 13 11 9 10 9 12 18 18 19
11 9 8 11 13 14 16 15 14 12 10 10 10 14 16 14 16 16 15 14 14 17 17 16 17 19 20 23 25 24 26 24 24 19 13 10 8 6 8 11 13 13 18 18
9 9 11 11 12 12 14 10 12 13 9 7 8 8 10 12 15 17 18 16 15 16 16 16 17 18 21 23 23 25 26 25 24 21 19 20 16 14 14 13 12 12 15 16
7 5 7 11 12 11 9 8 10 11 9 8 7 7 8 8 15 18 18 18 16 14 15 16 16 18 19 21 22 23 24 25 24 23 23 22 17 14 9 9 12 13 12 14
10 7 6 8 9 10 8 6 8 7 6 10 12 10 7 8 15 15 16 17 15 14 13 14 14 15 17 19 20 21 24 25 24 25 24 24 21 16 14 13 15 14 11 12
8 6 4 5 6 6 6 3 3 4 6 8 9 9 9 10 10 13 14 15 14 13 12 11 12 14 16 18 20 21 23 24 24 25 25 25 23 21 20 18 17 15 12 13
5 7 4 3 4 4 6 7 6 4 5 3 7 10 7 9 8 8 9 9 10 12 12 12 12 14 16 19 20 21 23 23 24 25 24 23 22 18 17 17 15 17 15 15
4 7 7 8 6 5 4 6 6 3 3 3 5 5 5 4 4 6 7 6 8 10 12 12 11 12 14 17 20 21 23 22 23 24 23 22 22 20 18 17 15 14 12 11
3 7 8 6 3 3 4 3 3 5 4 4 5 4 2 3 5 5 6 7 7 7 7 9 9 10 12 14 16 18 21 23 21 24 22 19 21 21 18 16 18 17 15 12
3 4 7 5 3 3 2 2 3 4 3 3 3 3 1 2 2 4 6 6 6 5 6 6 6 7 9 10 14 15 17 19 20 22 21 20 20 20 18 17 18 17 15 15
3 2 5 7 6 3 2 2 2 2 4 4 3 3 3 3 5 6 7 8 6 4 3 3 2 2 4 7 10 13 14 16 18 20 20 20 18 18 18 18 18 17 16 16
2 0 4 7 4 4 2 2 3 4 3 4 5 4 4 8 10 10 9 10 8 6 4 3 2 1 2 4 6 9 11 13 14 15 18 18 17 17 19 18 17 16 16 16
2 2 4 5 7 6 8 8 6 4 4 5 6 7 9 12 12 12 11 10 8 7 6 5 3 2 1 2 4 5 6 8 10 12 15 17 18 18 17 17 15 16 16 16
1 4 6 10 11 9 9 10 8 7 7 7 7 7 8 9 9 10 10 10 10 10 8 6 4 4 3 1 1 3 5 5 7 10 12 14 14 14 14 14 15 14 14 15
1 3 4 7 8 8 10 10 9 9 7 8 9 9 7 6 5 7 9 10 10 10 9 8 6 5 3 2 2 2 3 4 6 9 10 9 10 11 13 13 13 13 13 13
3 3 3 6 8 6 5 6 6 5 5 5 7 8 7 7 7 6 7 9 9 10 10 9 8 5 4 3 2 3 3 3 5 6 7 8 9 10 12 12 12 13 13 12
6 4 3 4 4 5 5 4 4 5 3 3 4 5 6 7 7 4 5 7 9 10 11 10 8 7 5 4 2 1 1 3 4 5 5 6 8 9 9 11 12 12 11 12
9 6 3 2 4 7 5 4 4 4 3 4 4 6 8 8 5 4 6 7 9 9 9 8 8 6 5 3 2 1 1 2 3 3 4 6 7 8 9 10 11 10 10 10
4 5 4 3 4 5 4 7 6 1 3 5 4 5 7 6 3 6 9 10 10 9 8 8 8 6 4 4 1 1 1 1 1 2 3 4 6 8 9 10 9 8 9 9
0 2 5 6 6 6 5 7 4 0 5 6 4 4 4 3 5 8 9 10 10 8 8 8 7 5 4 3 1 0 0 1 1 0 1 2 4 7 8 8 8 8 8 8
5 4 4 4 5 7 3 2 0 5 5 5 5 4 4 6 7 7 8 10 10 9 8 8 7 7 5 3 1 1 1 1 1 1 2 2 3 5 6 8 8 8 9 9
6 7 5 6 7 5 3 4 5 4 4 5 5 6 6 6 7 8 8 9 9 8 8 7 7 7 6 4 2 1 2 1 1 2 2 3 3 4 6 8 9 8 9 8
5 3 4 5 7 7 6 5 5 4 5 6 6 6 6 6 7 8 8 9 9 8 7 7 6 7 7 6 4 2 2 1 1 2 2 3 4 5 5 6 6 7 8 8
7 4 5 7 8 7 6 6 6 7 6 6 7 7 7 7 8 7 8 9 8 8 7 6 5 6 7 6 5 3 1 0 1 1 2 3 4 5 5 4 4 5 5 7
7 8 7 9 8 7 7 7 6 7 7 7 7 8 8 7 9 8 8 8 8 8 7 7 6 6 6 5 5 3 2 1 2 2 2 3 3 4 5 5 5 7 5 7
Wind_Direction
225 213 226 227 227 243 255 263 262 259 259 245 245 250 249 248 247 237 231 226 221 221 216 206 200 194 188 186 184 184 181 179 177 179 180 182 186 183 182 183 181 182 181 179
260 242 242 246 246 251 253 257 264 271 258 250 254 256 252 240 239 238 234 229 225 226 222 209 203 196 191 188 187 186 185 181 182 185 185 185 179 178 179 179 182 184 183 182
245 256 251 249 248 248 252 249 249 258 275 264 261 259 248 240 235 236 236 233 225 223 221 214 204 198 193 192 190 189 188 185 186 181 174 163 154 154 175 188 190 188 186 185
256 258 254 251 249 243 256 246 255 255 259 250 221 257 247 231 234 232 232 232 229 225 220 215 206 200 197 195 192 191 189 188 186 180 179 178 182 189 194 191 189 185 186 186
267 271 269 258 253 244 253 260 256 252 250 264 234 246 262 226 229 228 228 229 229 228 221 215 208 201 199 195 191 191 190 189 186 184 184 184 190 194 179 175 180 186 189 190
264 260 255 254 263 251 253 262 263 251 237 248 227 225 257 219 220 222 224 225 225 224 222 218 211 203 199 195 192 190 189 190 187 187 187 190 191 184 176 182 188 191 192 194
306 282 252 248 269 264 225 201 230 215 212 235 202 211 243 238 231 225 225 225 222 221 219 215 209 201 197 193 192 190 189 190 188 189 192 194 194 189 189 190 192 192 194 200
307 301 295 285 244 254 230 200 208 215 212 240 194 214 240 242 246 245 237 231 225 223 221 216 209 203 198 193 192 191 190 191 190 191 196 197 195 194 195 193 194 197 202 204
285 284 300 299 276 227 228 221 224 261 284 250 227 241 285 293 286 267 254 243 237 228 224 221 212 205 198 194 192 192 191 191 191 193 196 197 197 196 197 194 195 199 201 195
246 282 293 300 302 251 234 224 196 206 218 237 242 231 253 286 278 287 280 259 251 249 237 228 215 207 201 195 193 192 192 193 192 194 196 198 198 200 198 193 197 200 198 191
245 270 300 322 298 281 281 234 233 215 224 213 235 249 260 260 317 322 309 299 275 261 248 239 224 208 201 193 191 191 193 193 193 194 196 197 198 199 196 196 199 200 196 193
259 250 282 278 275 285 237 237 224 227 250 237 240 260 349 4 12 6 353 346 332 316 292 272 246 195 191 192 190 191 192 192 194 194 195 198 197 195 196 199 199 197 196 196
289 321 321 328 331 352 350 309 286 268 255 236 227 248 352 3 3 3 356 351 343 342 350 353 19 88 187 189 189 191 193 193 193 192 194 195 195 195 198 200 198 195 195 195
313 211 209 243 268 287 294 295 289 264 246 255 247 274 314 340 346 349 348 345 345 357 5 11 7 356 279 193 187 185 194 193 189 188 192 196 197 197 198 198 195 195 194 194
33 250 245 259 268 268 274 282 277 254 246 246 268 275 297 320 331 336 341 346 356 1 2 2 1 353 347 319 207 191 191 187 185 187 192 197 196 194 193 194 194 192 192 194
281 251 271 277 270 272 276 281 272 259 254 254 268 274 299 317 330 340 346 351 355 354 351 351 350 354 343 316 275 219 199 190 181 186 192 190 186 188 189 191 189 189 189 189
232 213 264 273 294 297 267 276 269 248 249 243 255 273 307 320 328 330 336 345 349 346 344 340 336 325 316 296 270 226 211 189 180 182 182 182 183 186 189 185 184 186 187 186
204 199 230 273 308 258 252 263 271 258 268 274 277 307 305 296 292 301 337 339 337 339 336 333 325 317 313 311 309 272 175 165 169 172 175 178 180 183 181 181 184 185 184 186
198 192 218 248 270 274 290 312 289 247 264 307 299 312 320 318 309 307 341 341 325 320 322 321 313 304 311 319 321 39 91 133 145 166 183 181 177 178 178 182 183 180 177 182
173 179 201 233 254 262 280 314 317 193 268 311 310 311 322 346 327 301 326 328 322 319 324 328 325 322 329 328 341 98 88 104 174 200 196 183 175 176 180 181 176 170 171 176
172 194 212 228 244 266 286 317 354 142 275 301 302 303 324 297 267 289 311 319 318 315 321 329 330 323 315 324 349 110 117 284 302 265 157 156 168 172 172 169 166 158 160 162
204 207 219 210 231 254 293 355 247 251 272 285 287 293 294 288 293 301 310 318 319 322 327 331 331 326 323 322 323 300 298 331 3 71 124 139 150 156 157 155 155 154 155 158
214 203 203 205 229 255 251 234 253 252 267 278 282 288 289 289 297 308 309 314 316 319 320 323 323 320 324 326 323 307 317 359 58 75 109 127 128 144 150 152 153 153 156 159
264 222 207 248 260 264 270 263 264 262 258 272 277 282 286 286 296 306 310 310 311 312 312 315 318 316 317 325 328 310 308 326 106 111 116 133 132 133 135 141 148 155 162 162
234 228 233 252 267 280 268 257 263 272 277 282 283 278 279 285 290 293 301 302 302 304 304 302 300 302 306 316 318 312 298 333 132 133 135 137 134 134 130 126 135 152 167 170
215 213 224 245 246 243 262 270 278 283 286 287 287 287 283 279 281 285 290 292 294 297 301 299 297 295 296 299 300 298 272 209 172 169 166 152 142 136 134 124 94 68 99 123
Height
1432 1434 1431 1428 1428 1426 1424 1422 1419 1413 1411 1411 1407 1405 1405 1404 1404 1403 1403 1405 1408 1410 1414 1419 1423 1428 1432 1437 1441 1446 1451 1456 1462 1467 1472 1476 1480 1485 1489 1493 1498 1501 1505 1508
1432 1428 1423 1422 1423 1424 1422 1421 1418 1413 1409 1408 1406 1402 1399 1398 1398 1398 1398 1399 1401 1405 1408 1412 1416 1421 1425 1429 1434 1440 1445 1450 1455 1460 1465 1471 1476 1481 1486 1490 1494 1498 1501 1505
1429 1422 1418 1419 1419 1421 1419 1418 1415 1413 1408 1405 1405 1400 1395 1391 1391 1392 1392 1393 1395 1398 1401 1404 1409 1413 1418 1422 1427 1432 1438 1443 1449 1455 1462 1468 1474 1479 1483 1486 1489 1492 1496 1500
1422 1417 1415 1415 1415 1416 1413 1410 1411 1410 1411 1407 1404 1400 1389 1385 1385 1384 1384 1386 1387 1390 1393 1397 1401 1405 1410 1415 1420 1426 1431 1437 1443 1449 1455 1459 1463 1467 1471 1476 1482 1487 1492 1496
1420 1414 1413 1412 1409 1410 1408 1406 1407 1406 1408 1408 1402 1401 1389 1381 1379 1376 1376 1377 1379 1382 1386 1389 1393 1397 1402 1408 1413 1419 1425 1430 1436 1442 1447 1452 1457 1462 1468 1473 1478 1483 1487 1491
1416 1412 1411 1408 1406 1405 1405 1406 1405 1404 1406 1406 1396 1398 1387 1377 1370 1368 1368 1370 1372 1375 1378 1382 1386 1391 1396 1401 1406 1412 1418 1423 1429 1435 1440 1445 1450 1456 1462 1467 1472 1477 1481 1485
1418 1410 1407 1406 1406 1403 1404 1409 1411 1407 1404 1397 1386 1389 1381 1368 1363 1361 1362 1363 1365 1369 1372 1375 1379 1383 1388 1393 1398 1404 1410 1416 1422 1428 1434 1439 1444 1450 1454 1460 1465 1470 1474 1478
1427 1418 1408 1404 1405 1404 1402 1405 1408 1403 1396 1390 1381 1379 1371 1362 1359 1357 1357 1358 1360 1363 1366 1368 1372 1376 1381 1385 1391 1396 1402 1408 1414 1421 1427 1433 1439 1444 1449 1454 1459 1464 1467 1471
1429 1420 1407 1403 1400 1402 1400 1400 1398 1400 1393 1391 1380 1371 1365 1359 1357 1356 1355 1355 1355 1357 1360 1362 1366 1370 1374 1379 1384 1389 1395 1401 1407 1413 1420 1426 1432 1437 1442 1447 1453 1458 1462 1467
1427 1424 1410 1403 1399 1398 1399 1396 1397 1399 1396 1388 1379 1373 1370 1362 1358 1356 1355 1353 1352 1353 1355 1357 1360 1364 1368 1373 1378 1383 1389 1394 1400 1406 1413 1419 1425 1430 1436 1441 1446 1451 1456 1461
1425 1425 1415 1408 1405 1402 1401 1399 1396 1394 1393 1389 1380 1374 1365 1361 1359 1358 1355 1352 1351 1351 1351 1353 1355 1358 1363 1368 1372 1377 1383 1389 1394 1400 1406 1412 1418 1424 1430 1435 1439 1445 1450 1455
1423 1425 1422 1412 1404 1402 1401 1401 1400 1399 1396 1389 1382 1376 1363 1362 1361 1359 1357 1353 1351 1350 1349 1350 1351 1354 1358 1362 1366 1371 1376 1382 1388 1394 1400 1405 1411 1417 1422 1428 1433 1438 1443 1448
1422 1426 1426 1415 1410 1406 1405 1403 1402 1401 1397 1390 1383 1374 1363 1363 1362 1360 1358 1354 1352 1349 1348 1348 1348 1350 1353 1357 1361 1366 1371 1376 1382 1388 1394 1399 1404 1410 1415 1421 1427 1432 1437 1442
1418 1424 1426 1424 1416 1411 1408 1403 1400 1399 1396 1390 1382 1374 1368 1366 1365 1362 1359 1357 1354 1350 1349 1348 1348 1349 1351 1353 1357 1361 1366 1371 1376 1382 1388 1393 1398 1403 1409 1414 1420 1425 1431 1436
1419 1422 1419 1413 1407 1406 1403 1399 1396 1396 1393 1390 1380 1376 1372 1371 1369 1366 1363 1359 1355 1351 1349 1348 1348 1348 1349 1351 1354 1357 1361 1366 1371 1376 1381 1386 1392 1398 1403 1409 1414 1419 1425 1430
1419 1420 1416 1410 1401 1400 1397 1393 1391 1389 1388 1385 1380 1376 1373 1372 1370 1367 1364 1361 1357 1354 1351 1350 1348 1348 1348 1350 1352 1354 1358 1362 1366 1371 1375 1381 1387 1392 1397 1402 1408 1413 1419 1424
1419 1419 1417 1411 1402 1398 1396 1391 1388 1386 1384 1383 1381 1378 1374 1372 1370 1368 1365 1362 1359 1356 1353 1351 1349 1348 1348 1349 1351 1353 1355 1359 1362 1366 1370 1376 1381 1386 1391 1397 1402 1407 1412 1418
1416 1417 1416 1411 1407 1406 1395 1387 1386 1384 1383 1382 1380 1378 1374 1372 1369 1367 1365 1363 1360 1357 1354 1351 1350 1349 1348 1348 1349 1351 1353 1356 1358 1362 1366 1371 1376 1381 1386 1392 1396 1402 1407 1412
1408 1412 1414 1412 1409 1399 1391 1385 1384 1383 1382 1381 1379 1377 1373 1370 1367 1365 1364 1363 1361 1357 1354 1351 1350 1348 1348 1348 1348 1349 1351 1353 1355 1359 1362 1366 1371 1376 1381 1386 1391 1396 1402 1407
1405 1408 1412 1412 1407 1398 1391 1383 1380 1381 1383 1380 1378 1376 1374 1371 1371 1367 1364 1362 1358 1356 1353 1350 1348 1348 1347 1347 1347 1348 1348 1350 1352 1356 1359 1363 1367 1371 1376 1381 1386 1392 1397 1402
1408 1410 1412 1411 1407 1396 1388 1383 1381 1387 1386 1379 1377 1375 1374 1373 1372 1368 1364 1360 1357 1354 1352 1350 1348 1347 1346 1346 1346 1346 1347 1348 1351 1354 1357 1360 1364 1368 1372 1377 1382 1387 1392 1397
1406 1409 1409 1407 1406 1398 1385 1383 1385 1384 1379 1377 1375 1373 1373 1371 1368 1366 1362 1359 1355 1352 1350 1348 1346 1345 1345 1345 1345 1345 1346 1348 1350 1351 1354 1357 1361 1365 1369 1373 1378 1383 1388 1393
1400 1399 1399 1399 1395 1386 1383 1382 1380 1378 1377 1375 1373 1371 1370 1368 1366 1363 1360 1357 1354 1351 1349 1347 1346 1344 1343 1344 1344 1343 1344 1346 1348 1350 1352 1355 1358 1362 1366 1370 1374 1379 1384 1389
1395 1391 1392 1391 1385 1382 1380 1378 1377 1376 1374 1372 1371 1369 1367 1365 1362 1360 1357 1355 1352 1350 1348 1346 1344 1342 1341 1342 1342 1343 1344 1345 1347 1348 1350 1353 1356 1360 1364 1368 1372 1376 1380 1384
1391 1389 1388 1386 1381 1378 1375 1375 1374 1372 1371 1369 1367 1365 1363 1361 1359 1357 1355 1353 1350 1348 1346 1345 1343 1341 1340 1340 1341 1342 1343 1344 1345 1347 1349 1351 1354 1357 1361 1365 1370 1374 1378 1382
1383 1384 1385 1381 1376 1376 1373 1371 1370 1368 1366 1365 1363 1361 1360 1358 1356 1353 1351 1350 1348 1345 1343 1342 1340 1339 1338 1338 1339 1340 1342 1343 1343 1345 1347 1350 1352 1356 1359 1363 1368 1372 1377 1381